Home > Time Zones > World Clock > Weather > U.S.A. > Knox > Past weeks

Flag for U.S.A. Weather past 2 weeks in Knox, Indiana, U.S.A.

Now
67 °F

Fog.


Feels Like: 67 °F
Forecast: 63 / 80 °F
Wind: 3 mph from Northwest

Location: Porter County Municipal Airport

Current Time: Aug 30, 2015 at 5:12:31 AM

Latest Report: Aug 30, 2015 at 4:56 AM


Visibility: 2 mi

Pressure: 30.02 "Hg

Humidity: 97%

Dew point: 66 °F

Location of KnoxLocation

Historic Weather in Knox — Graph

°F

Knox temperature yesterday

Maximum temperature yesterday: 74 °F (at 2:56 PM)
Minimum temperature yesterday: 61 °F (at 2:56 AM)
Average temperature yesterday: 68 °F

Past Weeks' High & Low Weather Summary

 TemperatureHumidityPressure
High88 °F (Aug 16, 1:56 PM)97% (Aug 15, 4:56 AM)30.23 "Hg (Aug 15, 4:56 AM)
Low53 °F (Aug 28, 4:56 AM)42% (Aug 22, 12:56 PM)29.69 "Hg (Aug 19, 4:56 AM)
Average69 °F75%30.02 "Hg
* Reported Aug 15 3:56 AM — Aug 30 3:56 AM, Knox, Weather by CustomWeather, © 2015

Note: Actual official high and low records may vary slightly from our data, if they occured in-between our weather recording intervals... More about our weather records

Advertising

Knox weather history for previous 24 hours

 ConditionsComfort  
Time TempWeatherWind HumidityBarometerVisibility
3:56 AM
Sun, Aug 30
68 °FFog.3 mph96%30.01 "Hg1 mi
2:56 AM69 °FFog.No wind93%30.01 "Hg1 mi
1:56 AM69 °FFog.No wind93%30.01 "Hg2 mi
12:56 AM69 °FFog.No wind93%30.02 "Hg3 mi
11:56 PM
Sat, Aug 29
69 °FFog.3 mph93%30.03 "Hg5 mi
10:56 PM69 °FMild.6 mph93%30.02 "Hg7 mi
9:56 PM70 °FMostly cloudy.5 mph90%30.03 "Hg8 mi
8:56 PM69 °FFog.No wind93%30.03 "Hg2 mi
7:56 PM70 °FFog.3 mph93%30.01 "Hg4 mi
6:56 PM71 °FFog.No wind90%30.01 "Hg5 mi
5:56 PM72 °FOvercast.No wind91%30.01 "Hg9 mi
4:56 PM73 °FOvercast.3 mph79%30.00 "Hg10 mi
3:56 PM74 °FOvercast.6 mph71%30.01 "Hg10 mi
2:56 PM74 °FPartly sunny.8 mph74%30.01 "Hg10 mi
1:56 PM72 °FOvercast.8 mph84%30.03 "Hg10 mi
12:56 PM71 °FOvercast.7 mph84%30.05 "Hg10 mi
11:56 AM69 °FOvercast.7 mph87%30.06 "Hg10 mi
10:56 AM68 °FOvercast.6 mph87%30.06 "Hg9 mi
9:56 AM66 °FLight rain. Fog.5 mph90%30.08 "Hg5 mi
8:56 AM65 °FMore clouds than sun.6 mph91%30.07 "Hg10 mi
7:56 AM64 °FMostly cloudy.5 mph90%30.07 "Hg9 mi
6:56 AM62 °FScattered clouds.5 mph90%30.07 "Hg10 mi
5:56 AM62 °FPassing clouds.No wind90%30.06 "Hg10 mi
Weather by CustomWeather, © 2015

See weather overviewHow to use our weather pages